Regional & State Weather Roundups


648 
ASUS44 KSJT 252015
RWRSJT
WEST CENTRAL TEXAS REGIONAL WEATHER ROUNDUP
NATIONAL WEATHER SERVICE SAN ANGELO TX
300 PM CDT THU APR 25 2019
NOTE: "FAIR" INDICATES FEW OR NO CLOUDS BELOW 12,000 FEET WITH NO
SIGNIFICANT WEATHER AND/OR OBSTRUCTIONS TO VISIBILITY.
TXZ049-054-064>066-071>073-076>078-098-099-113-114-127-128-139-140-
154-155-168>170-252100
...LOCATIONS ACROSS WEST CENTRAL TEXAS...
  
CITY           SKY/WX    TMP DP  RH WIND       PRES   REMARKS
SAN ANGELO     SUNNY     82  52  35 VRB7      29.95R                  
ABILENE        SUNNY     82  53  36 N13       29.95R                  
DYESS AFB      SUNNY     80  53  38 W5        29.94R                  
JUNCTION       MOSUNNY   85  51  31 NW10      29.94S                  
SWEETWATER     SUNNY     79  52  39 W8        29.99                   
BROWNWOOD      SUNNY     81  55  41 NW14      29.92S                  
COLEMAN        CLEAR     81  51  34 NW9       29.94S                  
SONORA         SUNNY     82  46  28 CALM      30.01S                  
OZONA          FAIR      82  41  23 W12G17    30.00S                  
BRADY          SUNNY     81  50  34 NW16      29.94S                  
$$
TEXAS PANHANDLE/OKLAHOMA PANHANDLE
  
CITY           SKY/WX    TMP DP  RH WIND       PRES   REMARKS
AMARILLO       SUNNY     73  46  38 N22G31    30.07R                  
BORGER         SUNNY     74  45  35 N21G36    30.07R                  
CANADIAN       MOSUNNY   75  52  43 N24G30    30.03R                  
DALHART        SUNNY     73  36  25 N26G33    30.12R                  
DUMAS          CLEAR     71  42  35 N23G33    30.11R                  
GUYMON         NOT AVBL                                               
HEREFORD       CLEAR     73  52  48 NE24      30.09S                  
PAMPA          CLEAR     73  47  40 N25G33    30.07R                  
PERRYTON       MOSUNNY   71  46  41 N23G32    30.07                   
$$
SOUTHERN PANHANDLE/SOUTH PLAINS/ROLLING PLAINS
  
CITY           SKY/WX    TMP DP  RH WIND       PRES   REMARKS
LUBBOCK        MOSUNNY   80  47  31 N20G29    30.02R                  
SNYDER         SUNNY     81  51  35 NW9       29.98                   
CHILDRESS      MOSUNNY   82  51  34 N24G32    29.95R                  
SEMINOLE       PTCLDY    83  38  19 CALM      30.03S                  
$$
PERMIAN BASIN
  
CITY           SKY/WX    TMP DP  RH WIND       PRES   REMARKS
MIDLAND        SUNNY     84  49  29 NW6       29.98S                  
ODESSA         SUNNY     82  44  26 CALM      29.99S                  
WINK           SUNNY     87  41  19 E3        29.96F                  
$$
FAR WEST/SOUTHWEST MOUNTAINS/TRANS PECOS
  
CITY           SKY/WX    TMP DP  RH WIND       PRES   REMARKS
ALPINE         CLEAR     82  33  17 NE9       30.13S                  
DRYDEN           N/A     87  49  26 MISG      29.94F                  
EL PASO        MOSUNNY   86  28  12 N12       30.03F                  
FORT STOCKTON  SUNNY     85  41  21 NW10      29.99F                  
GUADALUPE PASS SUNNY     82  36  19 SW17G26   30.13F                  
MARFA          SUNNY     79  34  19 W14G24    30.12S                  
PECOS          CLEAR     86  44  23 N5        29.97S                  
$$
DALLAS/FORT WORTH METROPLEX
  
CITY           SKY/WX    TMP DP  RH WIND       PRES   REMARKS
DFW AIRPORT    MOSUNNY   79  55  43 NW12G22   29.85S                  
FTW MEACHAM    SUNNY     77  57  50 NW9G21    29.86S                  
DAL-EXECUTIVE  SUNNY     77  55  46 NW14      29.85R                  
GRAND PRAIRIE  SUNNY     79  52  38 N12G17    29.88R                  
ADDISON        SUNNY     79  54  41 NW9G18    29.87R                  
MESQUITE       PTCLDY    79  54  41 W14       29.86R                  
LANCASTER      CLEAR     76  59  55 NW7G17    29.87S                  
$$
NORTH CENTRAL TEXAS
  
CITY           SKY/WX    TMP DP  RH WIND       PRES   REMARKS
SHRMAN/DENISON CLEAR     77  57  50 W12       29.87R                  
GAINESVILLE    SUNNY     77  55  45 N6        29.88S                  
BRIDGEPORT     CLEAR     79  55  43 NW6       29.90                   
DENTON         SUNNY     79  54  41 N14       29.86S                  
WAXAHACHIE     CLEAR     78  58  49 NW13G20   29.87S                  
GRANBURY       CLEAR     80  56  43 MISG      29.90R                  
$$
WESTERN NORTH TEXAS
  
CITY           SKY/WX    TMP DP  RH WIND       PRES   REMARKS
WICHITA FALLS  MOSUNNY   81  57  43 N8        29.88R                  
VERNON         CLEAR     81  54  38 N9        29.93                   
BRECKENRIDGE   CLEAR     81  53  38 NW7       29.92S HAZE             
COMANCHE       SUNNY     79  57  47 NW9       29.92S                  
$$
CENTRAL AND SOUTH CENTRAL TEXAS
  
CITY           SKY/WX    TMP DP  RH WIND       PRES   REMARKS
AUSTIN/BERGSTM MOSUNNY   86  58  38 VRB6      29.87S                  
WACO           SUNNY     81  61  50 NW10      29.86S                  
HILLSBORO      CLEAR     78  62  58 NW10      29.87S                  
TEMPLE           N/A     81  61  50 NW8       29.88S                  
KILLEEN-GRAY   MOSUNNY   82  55  38 NW15G21   29.88                   
FORT HOOD      MOSUNNY   82  56  41 N13       29.84S                  
GEORGETOWN     SUNNY     82  60  47 NW8G17    29.89S                  
LAGO VISTA     FAIR      81  57  44 NW10G16   29.91R                  
SAN MARCOS     SUNNY     85  56  37 VRB3      29.89S                  
NEW BRAUNFELS  SUNNY     85  56  37 N6        29.88S                  
RANDOLPH AFB   SUNNY     84  55  35 NW13      29.89S                  
SAN ANTONIO    MOSUNNY   84  55  36 NW10G22   29.90F                  
STINSON        SUNNY     87  53  31 W12G17    29.87F                  
PLEASANTON     NOT AVBL                                               
LA GRANGE      SUNNY     81  60  49 SW5       29.86F                  
GIDDINGS       CLEAR     82  58  43 NW5       29.88F                  
$$
EAST TEXAS
  
CITY           SKY/WX    TMP DP  RH WIND       PRES   REMARKS
PARIS          PTSUNNY   74  61  63 N15       29.85R                  
CLARKSVILLE    NOT AVBL                                               
TYLER          SUNNY     77  54  44 NW13      29.83S                  
LONGVIEW       PTSUNNY   77  61  57 NW12      29.81S                  
PALESTINE      PTCLDY    77  60  54 W8G17     29.86S                  
NACOGDOCHES    PTSUNNY   74  61  63 NW12      29.84S                  
$$
TEXAS HILL COUNTRY AND EDWARDS PLATEAU
  
CITY           SKY/WX    TMP DP  RH WIND       PRES   REMARKS
LLANO          CLEAR     84  54  34 NW10      29.94R                  
HORSESHOE BAY  NOT AVBL                                               
KERRVILLE      SUNNY     82  48  30 N18       29.93S                  
FREDERICKSBRG  SUNNY     81  51  35 NW9       29.94S                  
ROCKSPRINGS    CLEAR     81  46  30 NW13      30.03R                  
HONDO          SUNNY     84  58  40 W6        29.90F                  
UVALDE         CLEAR     82  56  40 W7        29.92F                  
DEL RIO        SUNNY     89  48  24 VRB5      29.90F                  
$$
SOUTHEAST TEXAS
  
CITY           SKY/WX    TMP DP  RH WIND       PRES   REMARKS
COLLEGE STN    SUNNY     79  62  56 W9        29.86S                  
CALDWELL       CLEAR     80  60  49 NW8       29.87S                  
CROCKETT         N/A     75  57  53 NW9G18    29.87S                  
BRENHAM        SUNNY     81  59  47 W9        29.87S                  
HUNTSVILLE     MOSUNNY   80  59  48 NW9       29.85S                  
CONROE         MOSUNNY   82  60  47 NW9G22    29.85S                  
HOUSTON BUSH   MOSUNNY   83  59  44 W10       29.84S                  
HOUSTON HOBBY  FAIR      83  57  41 NW8       29.83S                  
PERLAND        FAIR      83  57  41 NW13G20   29.85S                  
WHARTON        CLEAR     82  52  34 N16G23    29.87F                  
$$
THE UPPER TEXAS COAST
  
CITY           SKY/WX    TMP DP  RH WIND       PRES   REMARKS
ORANGE         FAIR      78  62  56 NW7G16    29.83F                  
PORT ARTHUR    FAIR      83  59  44 NW10      29.81F                  
GALVESTON      FAIR      84  57  39 W10       29.84F                  
ANGLETON       FAIR      83  59  44 NW13G20   29.85S                  
BAY CITY       FAIR      83  59  44 NW13G18   29.85F                  
$$
TEXAS COASTAL BEND, RIO GRANDE PLAINS DEEP SOUTH TEXAS
  
CITY           SKY/WX    TMP DP  RH WIND       PRES   REMARKS
VICTORIA       SUNNY     84  57  39 NW12      29.87F                  
BEEVILLE       FAIR      87  54  31 N10G16    29.88F                  
ROCKPORT       SUNNY     84  60  44 NW9       29.86F                  
PORT ARANSAS   CLEAR     84  58  41 N12       29.88F                  
PORT LAVACA    CLEAR     87  56  35 N13G21    29.87F                  
CORPUS CHRISTI MOSUNNY   85  62  46 NW15      29.87F                  
KINGSVILLE NAS MOSUNNY   88  57  34 N12G21    29.87                   
COTULLA        SUNNY     87  49  26 N12G20    29.89F                  
LAREDO         SUNNY     92  47  21 W13       29.88F                  
BROWNSVILLE    FAIR      86  66  51 NE15      29.89S                  
PORT ISABEL    FAIR      81  62  52 NE10      29.89S                  
HEBBRONVILLE   PTCLDY    89  46  22 N14G21    29.90F                  
MCALLEN        SUNNY     92  52  25 NW5       29.88F                  
WESLACO        NOT AVBL                                               
FALFURRIAS     CLEAR     90  50  25 NW10      29.87F                  
EDINBURG       CLEAR     92  51  25 N7G16     29.87F                  
$$